QPF
0.01 0.01 0.02 0.05 0.13 0.15 0.10 0.05 0.02 0.02 0.01 0.01 0.00 0.01 0.02 0.02 0.04 0.09 0.09 0.06 0.09 0.10 0.11 0.10 0.11 0.12 0.10 0.10 0.10 0.07 0.04 0.03 0.03 0.03 0.04 0.05 0.06 0.07 0.10 0.12 0.18 0.23 0.22 0.17 0.10 0.10 0.11 0.13 0.15
0.01 0.01 0.02 0.09 0.18 0.13 0.06 0.04 0.03 0.02 0.01 0.00 0.00 0.02 0.02 0.01 0.03 0.08 0.09 0.06 0.09 0.09 0.09 0.10 0.12 0.14 0.12 0.11 0.07 0.07 0.05 0.04 0.03 0.03 0.04 0.05 0.05 0.06 0.10 0.12 0.16 0.17 0.14 0.12 0.11 0.11 0.11 0.13 0.12
0.01 0.01 0.05 0.11 0.11 0.07 0.05 0.04 0.01 0.01 0.00 0.00 0.00 0.01 0.01 0.04 0.05 0.07 0.07 0.05 0.09 0.09 0.08 0.10 0.15 0.17 0.14 0.09 0.05 0.07 0.07 0.05 0.03 0.04 0.05 0.04 0.04 0.05 0.09 0.12 0.14 0.10 0.10 0.10 0.09 0.10 0.12 0.12 0.09
0.01 0.03 0.05 0.08 0.05 0.03 0.04 0.02 0.00 0.00 0.00 0.00 0.00 0.01 0.02 0.04 0.05 0.05 0.03 0.05 0.08 0.09 0.11 0.16 0.21 0.20 0.17 0.13 0.08 0.09 0.08 0.05 0.04 0.05 0.05 0.05 0.05 0.06 0.09 0.15 0.13 0.10 0.09 0.08 0.08 0.09 0.11 0.09 0.08
0.04 0.07 0.09 0.07 0.03 0.02 0.02 0.01 0.00 0.00 0.00 0.00 0.00 0.02 0.07 0.06 0.04 0.04 0.03 0.06 0.08 0.10 0.14 0.12 0.13 0.18 0.18 0.15 0.09 0.08 0.07 0.06 0.04 0.05 0.05 0.05 0.04 0.05 0.09 0.10 0.08 0.07 0.07 0.08 0.10 0.08 0.08 0.07 0.06
0.14 0.12 0.09 0.06 0.03 0.01 0.01 0.00 0.00 0.01 0.02 0.01 0.02 0.07 0.11 0.07 0.05 0.05 0.05 0.08 0.09 0.11 0.12 0.09 0.10 0.15 0.14 0.12 0.09 0.10 0.08 0.06 0.05 0.05 0.05 0.04 0.04 0.05 0.04 0.06 0.05 0.05 0.07 0.08 0.08 0.07 0.08 0.07 0.06
0.19 0.16 0.07 0.03 0.02 0.01 0.00 0.00 0.00 0.02 0.04 0.02 0.02 0.06 0.08 0.08 0.06 0.06 0.07 0.08 0.09 0.10 0.12 0.12 0.13 0.12 0.09 0.07 0.07 0.11 0.10 0.06 0.05 0.05 0.03 0.03 0.03 0.03 0.04 0.04 0.04 0.05 0.06 0.07 0.06 0.05 0.06 0.06 0.07
0.08 0.08 0.04 0.02 0.03 0.02 0.00 0.00 0.00 0.01 0.02 0.00 0.01 0.03 0.04 0.05 0.03 0.05 0.06 0.08 0.08 0.08 0.12 0.14 0.12 0.10 0.10 0.08 0.07 0.08 0.08 0.05 0.04 0.05 0.04 0.04 0.03 0.04 0.05 0.05 0.05 0.05 0.04 0.05 0.05 0.05 0.07 0.05 0.05
0.04 0.06 0.04 0.01 0.02 0.02 0.01 0.00 0.00 0.00 0.00 0.00 0.00 0.01 0.01 0.02 0.01 0.03 0.06 0.08 0.08 0.06 0.08 0.08 0.06 0.06 0.07 0.07 0.07 0.07 0.07 0.07 0.05 0.06 0.07 0.08 0.10 0.08 0.09 0.07 0.05 0.04 0.04 0.04 0.04 0.04 0.05 0.05 0.05
0.11 0.05 0.01 0.00 0.00 0.01 0.00 0.00 0.00 0.00 0.01 0.01 0.01 0.01 0.01 0.01 0.01 0.02 0.04 0.07 0.09 0.06 0.06 0.08 0.06 0.05 0.06 0.07 0.07 0.08 0.06 0.06 0.06 0.08 0.09 0.11 0.10 0.10 0.10 0.10 0.07 0.05 0.04 0.05 0.04 0.04 0.05 0.08 0.09
0.01 0.01 0.00 0.00 0.00 0.00 0.00 0.01 0.01 0.01 0.02 0.02 0.02 0.02 0.01 0.02 0.02 0.03 0.04 0.05 0.08 0.09 0.07 0.07 0.07 0.07 0.08 0.09 0.08 0.08 0.06 0.05 0.06 0.07 0.10 0.09 0.07 0.07 0.09 0.16 0.14 0.12 0.07 0.07 0.06 0.06 0.10 0.12 0.11
0.00 0.00 0.00 0.00 0.00 0.00 0.00 0.01 0.03 0.02 0.01 0.01 0.01 0.03 0.03 0.03 0.02 0.03 0.06 0.07 0.07 0.08 0.07 0.07 0.07 0.08 0.09 0.07 0.08 0.08 0.05 0.03 0.04 0.08 0.07 0.05 0.06 0.08 0.09 0.14 0.17 0.15 0.10 0.09 0.08 0.09 0.10 0.10 0.10
0.00 0.00 0.00 0.00 0.00 0.00 0.00 0.01 0.01 0.00 0.00 0.00 0.01 0.03 0.03 0.04 0.04 0.04 0.05 0.05 0.05 0.04 0.04 0.06 0.07 0.08 0.08 0.08 0.09 0.06 0.06 0.05 0.06 0.08 0.05 0.04 0.05 0.07 0.09 0.11 0.12 0.09 0.08 0.09 0.10 0.09 0.09 0.09 0.08
0.00 0.00 0.00 0.00 0.00 0.00 0.00 0.00 0.00 0.00 0.00 0.01 0.02 0.03 0.03 0.01 0.02 0.04 0.06 0.05 0.04 0.02 0.04 0.07 0.07 0.07 0.07 0.05 0.06 0.05 0.04 0.05 0.05 0.06 0.04 0.05 0.06 0.06 0.08 0.10 0.10 0.09 0.09 0.10 0.10 0.10 0.10 0.09 0.08
0.01 0.01 0.00 0.00 0.00 0.00 0.00 0.01 0.01 0.01 0.01 0.02 0.02 0.02 0.01 0.01 0.01 0.03 0.04 0.04 0.03 0.03 0.03 0.07 0.07 0.07 0.06 0.05 0.04 0.04 0.04 0.03 0.03 0.03 0.04 0.05 0.06 0.07 0.08 0.08 0.09 0.10 0.09 0.09 0.08 0.08 0.08 0.06 0.05
0.02 0.03 0.01 0.01 0.00 0.01 0.01 0.02 0.01 0.00 0.01 0.02 0.03 0.02 0.01 0.01 0.01 0.01 0.02 0.03 0.03 0.03 0.03 0.05 0.04 0.04 0.04 0.04 0.05 0.03 0.04 0.04 0.04 0.04 0.05 0.04 0.05 0.05 0.06 0.05 0.05 0.06 0.07 0.08 0.07 0.07 0.06 0.04 0.04
0.01 0.02 0.02 0.01 0.01 0.00 0.01 0.02 0.01 0.00 0.01 0.02 0.02 0.01 0.01 0.00 0.01 0.01 0.03 0.03 0.02 0.03 0.03 0.04 0.03 0.03 0.03 0.04 0.04 0.05 0.04 0.04 0.04 0.04 0.05 0.04 0.05 0.05 0.06 0.06 0.06 0.05 0.06 0.08 0.08 0.07 0.05 0.05 0.05
0.03 0.03 0.03 0.03 0.01 0.00 0.01 0.01 0.01 0.00 0.01 0.02 0.02 0.01 0.01 0.00 0.01 0.01 0.02 0.03 0.04 0.04 0.05 0.04 0.03 0.03 0.03 0.04 0.04 0.04 0.05 0.04 0.03 0.02 0.03 0.04 0.04 0.04 0.06 0.06 0.05 0.05 0.06 0.09 0.11 0.08 0.08 0.06 0.05
0.02 0.03 0.03 0.02 0.01 0.00 0.00 0.02 0.01 0.00 0.01 0.09 0.07 0.02 0.01 0.01 0.01 0.02 0.02 0.03 0.03 0.05 0.05 0.05 0.05 0.04 0.04 0.04 0.04 0.04 0.05 0.04 0.03 0.02 0.03 0.04 0.05 0.04 0.05 0.06 0.06 0.06 0.07 0.10 0.15 0.13 0.10 0.08 0.07
0.01 0.02 0.02 0.02 0.01 0.01 0.01 0.01 0.01 0.00 0.02 0.08 0.07 0.04 0.02 0.01 0.01 0.02 0.02 0.02 0.02 0.03 0.03 0.04 0.04 0.04 0.04 0.04 0.05 0.04 0.04 0.03 0.03 0.04 0.03 0.04 0.05 0.05 0.06 0.08 0.06 0.06 0.06 0.11 0.17 0.15 0.14 0.11 0.09
0.01 0.01 0.01 0.02 0.01 0.01 0.01 0.01 0.00 0.00 0.02 0.04 0.05 0.04 0.01 0.01 0.02 0.02 0.03 0.02 0.02 0.02 0.02 0.03 0.02 0.03 0.03 0.04 0.04 0.03 0.03 0.03 0.04 0.05 0.03 0.04 0.04 0.05 0.06 0.07 0.06 0.05 0.05 0.08 0.10 0.09 0.13 0.14 0.13
0.00 0.01 0.01 0.01 0.01 0.01 0.01 0.03 0.00 0.01 0.04 0.06 0.06 0.04 0.01 0.01 0.02 0.02 0.02 0.02 0.01 0.01 0.02 0.03 0.02 0.02 0.02 0.02 0.02 0.03 0.03 0.03 0.04 0.05 0.04 0.04 0.03 0.04 0.05 0.07 0.06 0.06 0.06 0.07 0.07 0.07 0.09 0.11 0.11
0.00 0.00 0.00 0.00 0.01 0.02 0.02 0.03 0.02 0.01 0.03 0.05 0.06 0.04 0.02 0.02 0.02 0.01 0.01 0.01 0.00 0.01 0.02 0.03 0.01 0.01 0.01 0.02 0.02 0.03 0.03 0.03 0.03 0.04 0.05 0.05 0.05 0.05 0.04 0.06 0.07 0.07 0.07 0.07 0.06 0.09 0.08 0.08 0.09
0.00 0.01 0.01 0.01 0.01 0.05 0.03 0.03 0.04 0.04 0.04 0.02 0.06 0.06 0.02 0.02 0.02 0.02 0.01 0.01 0.01 0.01 0.03 0.02 0.01 0.01 0.01 0.02 0.02 0.02 0.03 0.03 0.03 0.04 0.04 0.05 0.07 0.07 0.05 0.06 0.07 0.06 0.07 0.07 0.07 0.08 0.08 0.07 0.06
0.00 0.02 0.04 0.03 0.03 0.04 0.01 0.03 0.03 0.01 0.01 0.02 0.06 0.07 0.03 0.03 0.03 0.02 0.01 0.01 0.01 0.01 0.02 0.02 0.01 0.02 0.02 0.03 0.03 0.02 0.02 0.02 0.04 0.05 0.05 0.04 0.05 0.05 0.04 0.06 0.08 0.07 0.08 0.07 0.07 0.07 0.08 0.07 0.07
0.00 0.01 0.03 0.03 0.03 0.02 0.01 0.02 0.01 0.00 0.01 0.01 0.03 0.04 0.03 0.05 0.04 0.02 0.01 0.01 0.01 0.01 0.02 0.02 0.02 0.01 0.02 0.02 0.03 0.03 0.03 0.02 0.03 0.04 0.04 0.04 0.04 0.03 0.03 0.05 0.07 0.06 0.07 0.05 0.06 0.06 0.06 0.07 0.07
0.00 0.01 0.01 0.01 0.02 0.02 0.02 0.03 0.01 0.01 0.01 0.01 0.03 0.04 0.03 0.04 0.05 0.04 0.02 0.01 0.01 0.01 0.01 0.02 0.01 0.01 0.01 0.02 0.02 0.03 0.02 0.02 0.02 0.04 0.04 0.03 0.04 0.03 0.03 0.04 0.05 0.05 0.06 0.06 0.05 0.06 0.06 0.06 0.05
0.00 0.00 0.01 0.04 0.04 0.03 0.03 0.03 0.02 0.02 0.03 0.04 0.03 0.02 0.01 0.01 0.04 0.06 0.03 0.02 0.02 0.01 0.01 0.02 0.02 0.01 0.02 0.03 0.03 0.03 0.03 0.02 0.03 0.03 0.03 0.02 0.03 0.03 0.04 0.04 0.05 0.07 0.06 0.07 0.05 0.05 0.06 0.06 0.05
0.01 0.01 0.02 0.04 0.04 0.03 0.04 0.03 0.02 0.02 0.01 0.02 0.05 0.05 0.01 0.01 0.02 0.08 0.07 0.04 0.06 0.02 0.01 0.02 0.03 0.02 0.03 0.04 0.04 0.04 0.04 0.04 0.04 0.04 0.03 0.02 0.02 0.03 0.04 0.04 0.05 0.06 0.05 0.05 0.05 0.05 0.05 0.05 0.05
0.00 0.01 0.03 0.04 0.03 0.03 0.03 0.03 0.03 0.02 0.02 0.03 0.06 0.05 0.03 0.02 0.03 0.04 0.05 0.06 0.06 0.02 0.01 0.01 0.02 0.02 0.03 0.04 0.04 0.04 0.05 0.05 0.04 0.02 0.02 0.02 0.03 0.04 0.05 0.06 0.07 0.06 0.05 0.05 0.04 0.03 0.04 0.04 0.04
MSLP
1007.99 1008.79 1009.55 1010.11 1010.35 1010.20 1009.66 1008.82 1007.83 1006.88 1006.14 1005.73 1005.70 1006.00 1006.54 1007.15 1007.69 1008.04 1008.16 1008.06 1007.83 1007.62 1007.53 1007.67 1008.07 1008.70 1009.46 1010.26 1010.98 1011.56 1011.96 1012.21 1012.38 1012.55 1012.79 1013.13 1013.57 1014.06 1014.53 1014.92 1015.18 1015.30 1015.29 1015.21 1015.09 1015.00 1014.94 1014.94 1014.95
1008.15 1008.97 1009.67 1010.10 1010.17 1009.84 1009.15 1008.22 1007.22 1006.34 1005.73 1005.48 1005.62 1006.07 1006.70 1007.36 1007.89 1008.18 1008.23 1008.06 1007.81 1007.59 1007.54 1007.76 1008.25 1008.98 1009.84 1010.73 1011.51 1012.14 1012.57 1012.84 1013.01 1013.17 1013.38 1013.68 1014.05 1014.46 1014.85 1015.17 1015.37 1015.45 1015.42 1015.33 1015.23 1015.14 1015.08 1015.06 1015.04
1008.41 1009.21 1009.80 1010.08 1009.96 1009.46 1008.65 1007.67 1006.69 1005.90 1005.44 1005.36 1005.66 1006.24 1006.94 1007.61 1008.11 1008.36 1008.34 1008.14 1007.87 1007.67 1007.68 1007.97 1008.56 1009.38 1010.32 1011.27 1012.11 1012.76 1013.22 1013.50 1013.67 1013.80 1013.97 1014.19 1014.47 1014.78 1015.08 1015.30 1015.44 1015.47 1015.43 1015.35 1015.26 1015.18 1015.13 1015.09 1015.04
1008.71 1009.44 1009.91 1010.02 1009.74 1009.10 1008.21 1007.21 1006.29 1005.61 1005.30 1005.38 1005.81 1006.47 1007.22 1007.90 1008.37 1008.57 1008.52 1008.31 1008.07 1007.93 1008.01 1008.38 1009.04 1009.92 1010.90 1011.88 1012.73 1013.40 1013.86 1014.14 1014.29 1014.40 1014.51 1014.66 1014.84 1015.05 1015.23 1015.37 1015.43 1015.43 1015.37 1015.30 1015.22 1015.16 1015.11 1015.05 1014.97
1008.94 1009.57 1009.91 1009.88 1009.47 1008.75 1007.82 1006.86 1006.04 1005.50 1005.32 1005.53 1006.05 1006.77 1007.53 1008.19 1008.63 1008.82 1008.78 1008.62 1008.44 1008.39 1008.55 1008.99 1009.70 1010.59 1011.57 1012.52 1013.34 1013.98 1014.42 1014.68 1014.82 1014.90 1014.97 1015.06 1015.16 1015.26 1015.35 1015.39 1015.39 1015.35 1015.28 1015.21 1015.14 1015.09 1015.04 1014.96 1014.85
1008.96 1009.50 1009.71 1009.58 1009.10 1008.36 1007.49 1006.63 1005.93 1005.54 1005.50 1005.80 1006.37 1007.09 1007.83 1008.46 1008.88 1009.08 1009.09 1009.01 1008.95 1009.01 1009.27 1009.77 1010.49 1011.36 1012.27 1013.14 1013.88 1014.44 1014.84 1015.07 1015.20 1015.27 1015.32 1015.36 1015.40 1015.43 1015.44 1015.41 1015.35 1015.27 1015.18 1015.11 1015.05 1015.00 1014.94 1014.85 1014.72
1008.68 1009.10 1009.23 1009.04 1008.57 1007.90 1007.15 1006.45 1005.94 1005.70 1005.78 1006.15 1006.73 1007.42 1008.10 1008.68 1009.09 1009.32 1009.41 1009.45 1009.52 1009.71 1010.07 1010.61 1011.32 1012.11 1012.92 1013.66 1014.27 1014.74 1015.07 1015.27 1015.39 1015.46 1015.51 1015.54 1015.56 1015.54 1015.49 1015.40 1015.29 1015.18 1015.08 1015.00 1014.94 1014.89 1014.83 1014.73 1014.59
1008.06 1008.38 1008.44 1008.25 1007.86 1007.33 1006.77 1006.30 1005.99 1005.93 1006.12 1006.53 1007.10 1007.72 1008.33 1008.85 1009.24 1009.50 1009.69 1009.85 1010.07 1010.39 1010.83 1011.41 1012.07 1012.77 1013.44 1014.02 1014.50 1014.86 1015.11 1015.28 1015.40 1015.49 1015.56 1015.60 1015.61 1015.57 1015.48 1015.36 1015.21 1015.07 1014.95 1014.87 1014.82 1014.77 1014.72 1014.63 1014.50
1007.16 1007.38 1007.40 1007.26 1006.99 1006.65 1006.34 1006.12 1006.05 1006.17 1006.47 1006.91 1007.43 1007.98 1008.50 1008.94 1009.31 1009.60 1009.87 1010.16 1010.51 1010.94 1011.47 1012.05 1012.67 1013.26 1013.78 1014.21 1014.55 1014.80 1014.98 1015.13 1015.25 1015.37 1015.47 1015.54 1015.55 1015.51 1015.41 1015.26 1015.09 1014.93 1014.80 1014.72 1014.68 1014.65 1014.62 1014.56 1014.46
1006.12 1006.25 1006.26 1006.18 1006.05 1005.92 1005.86 1005.91 1006.08 1006.37 1006.77 1007.24 1007.72 1008.19 1008.61 1008.98 1009.31 1009.62 1009.95 1010.34 1010.80 1011.32 1011.89 1012.48 1013.04 1013.53 1013.93 1014.23 1014.45 1014.61 1014.73 1014.86 1015.00 1015.15 1015.28 1015.37 1015.41 1015.37 1015.26 1015.10 1014.92 1014.75 1014.63 1014.56 1014.54 1014.54 1014.55 1014.54 1014.50
1005.16 1005.22 1005.21 1005.18 1005.18 1005.24 1005.41 1005.69 1006.07 1006.52 1007.01 1007.50 1007.94 1008.34 1008.67 1008.97 1009.25 1009.57 1009.94 1010.39 1010.92 1011.50 1012.10 1012.68 1013.19 1013.60 1013.90 1014.11 1014.24 1014.34 1014.44 1014.56 1014.71 1014.87 1015.03 1015.14 1015.19 1015.16 1015.05 1014.90 1014.72 1014.56 1014.46 1014.41 1014.42 1014.47 1014.54 1014.59 1014.63
1004.52 1004.50 1004.45 1004.45 1004.53 1004.73 1005.07 1005.52 1006.06 1006.63 1007.18 1007.68 1008.10 1008.44 1008.70 1008.94 1009.18 1009.49 1009.87 1010.34 1010.89 1011.50 1012.10 1012.66 1013.14 1013.50 1013.75 1013.91 1014.00 1014.07 1014.15 1014.27 1014.42 1014.60 1014.76 1014.88 1014.94 1014.92 1014.82 1014.68 1014.52 1014.39 1014.31 1014.31 1014.37 1014.48 1014.61 1014.74 1014.86
1004.36 1004.25 1004.15 1004.12 1004.23 1004.49 1004.91 1005.45 1006.07 1006.71 1007.30 1007.80 1008.20 1008.49 1008.72 1008.91 1009.13 1009.40 1009.77 1010.24 1010.79 1011.37 1011.96 1012.50 1012.96 1013.30 1013.54 1013.68 1013.78 1013.85 1013.93 1014.05 1014.20 1014.36 1014.51 1014.63 1014.68 1014.67 1014.59 1014.48 1014.36 1014.27 1014.25 1014.29 1014.40 1014.57 1014.77 1014.98 1015.17
1004.73 1004.55 1004.37 1004.28 1004.34 1004.58 1004.99 1005.53 1006.16 1006.79 1007.37 1007.86 1008.24 1008.52 1008.73 1008.91 1009.10 1009.36 1009.71 1010.14 1010.65 1011.20 1011.75 1012.27 1012.71 1013.06 1013.31 1013.49 1013.61 1013.70 1013.80 1013.91 1014.03 1014.17 1014.30 1014.39 1014.44 1014.44 1014.40 1014.33 1014.27 1014.25 1014.28 1014.38 1014.55 1014.77 1015.03 1015.29 1015.55
1005.54 1005.29 1005.02 1004.84 1004.81 1004.97 1005.29 1005.76 1006.31 1006.89 1007.42 1007.88 1008.24 1008.52 1008.73 1008.92 1009.12 1009.37 1009.69 1010.08 1010.54 1011.03 1011.54 1012.03 1012.46 1012.83 1013.12 1013.34 1013.50 1013.63 1013.73 1013.83 1013.93 1014.02 1014.11 1014.18 1014.23 1014.25 1014.25 1014.25 1014.27 1014.32 1014.42 1014.57 1014.79 1015.05 1015.34 1015.64 1015.94
1006.55 1006.24 1005.91 1005.65 1005.52 1005.56 1005.77 1006.11 1006.53 1006.99 1007.44 1007.85 1008.19 1008.47 1008.71 1008.93 1009.16 1009.42 1009.72 1010.07 1010.47 1010.91 1011.36 1011.81 1012.24 1012.63 1012.96 1013.23 1013.44 1013.60 1013.71 1013.78 1013.84 1013.88 1013.92 1013.97 1014.02 1014.07 1014.14 1014.22 1014.33 1014.46 1014.63 1014.83 1015.08 1015.36 1015.66 1015.98 1016.29
1007.47 1007.15 1006.79 1006.48 1006.28 1006.22 1006.30 1006.49 1006.77 1007.09 1007.43 1007.75 1008.06 1008.35 1008.63 1008.90 1009.18 1009.47 1009.77 1010.10 1010.45 1010.83 1011.23 1011.64 1012.06 1012.46 1012.83 1013.14 1013.39 1013.57 1013.68 1013.73 1013.73 1013.72 1013.72 1013.74 1013.80 1013.90 1014.04 1014.21 1014.41 1014.63 1014.86 1015.10 1015.36 1015.64 1015.93 1016.24 1016.56
1008.03 1007.74 1007.42 1007.13 1006.92 1006.81 1006.80 1006.86 1006.98 1007.14 1007.34 1007.58 1007.84 1008.13 1008.45 1008.78 1009.13 1009.47 1009.80 1010.13 1010.45 1010.78 1011.13 1011.51 1011.90 1012.30 1012.69 1013.04 1013.32 1013.51 1013.61 1013.62 1013.59 1013.53 1013.48 1013.48 1013.55 1013.69 1013.91 1014.17 1014.46 1014.75 1015.04 1015.31 1015.57 1015.83 1016.10 1016.39 1016.70
1008.04 1007.84 1007.63 1007.45 1007.32 1007.23 1007.17 1007.14 1007.12 1007.13 1007.19 1007.30 1007.50 1007.78 1008.13 1008.53 1008.95 1009.37 1009.76 1010.11 1010.42 1010.73 1011.04 1011.37 1011.74 1012.14 1012.53 1012.89 1013.19 1013.39 1013.48 1013.47 1013.39 1013.28 1013.20 1013.19 1013.27 1013.45 1013.72 1014.06 1014.43 1014.79 1015.11 1015.40 1015.65 1015.88 1016.11 1016.38 1016.68
1007.48 1007.42 1007.40 1007.41 1007.44 1007.45 1007.41 1007.33 1007.20 1007.05 1006.95 1006.93 1007.03 1007.28 1007.65 1008.11 1008.62 1009.13 1009.59 1009.99 1010.33 1010.62 1010.90 1011.21 1011.55 1011.93 1012.32 1012.69 1012.99 1013.20 1013.29 1013.26 1013.15 1013.01 1012.90 1012.87 1012.95 1013.16 1013.48 1013.87 1014.29 1014.69 1015.04 1015.33 1015.56 1015.76 1015.96 1016.20 1016.50
1006.48 1006.61 1006.83 1007.10 1007.35 1007.52 1007.56 1007.45 1007.22 1006.92 1006.65 1006.47 1006.46 1006.64 1007.01 1007.52 1008.12 1008.72 1009.28 1009.75 1010.13 1010.43 1010.70 1010.98 1011.30 1011.66 1012.04 1012.42 1012.73 1012.95 1013.05 1013.02 1012.90 1012.74 1012.61 1012.56 1012.63 1012.84 1013.17 1013.59 1014.03 1014.45 1014.81 1015.09 1015.30 1015.47 1015.65 1015.87 1016.17
1005.31 1005.66 1006.16 1006.72 1007.22 1007.57 1007.70 1007.58 1007.25 1006.79 1006.32 1005.96 1005.80 1005.89 1006.23 1006.77 1007.44 1008.15 1008.80 1009.36 1009.80 1010.13 1010.41 1010.67 1010.97 1011.31 1011.69 1012.07 1012.41 1012.65 1012.77 1012.77 1012.65 1012.49 1012.35 1012.28 1012.33 1012.51 1012.83 1013.23 1013.67 1014.09 1014.44 1014.71 1014.90 1015.05 1015.21 1015.42 1015.72
1004.26 1004.85 1005.63 1006.47 1007.22 1007.73 1007.93 1007.78 1007.34 1006.70 1006.02 1005.45 1005.12 1005.09 1005.37 1005.91 1006.64 1007.43 1008.18 1008.83 1009.33 1009.71 1010.00 1010.27 1010.55 1010.88 1011.25 1011.65 1012.02 1012.30 1012.47 1012.51 1012.43 1012.28 1012.13 1012.03 1012.05 1012.19 1012.47 1012.84 1013.25 1013.64 1013.98 1014.24 1014.43 1014.57 1014.71 1014.91 1015.20
1003.60 1004.41 1005.45 1006.53 1007.46 1008.10 1008.32 1008.11 1007.52 1006.68 1005.78 1004.99 1004.46 1004.28 1004.48 1005.00 1005.75 1006.61 1007.45 1008.17 1008.75 1009.17 1009.48 1009.75 1010.02 1010.34 1010.73 1011.15 1011.55 1011.90 1012.13 1012.23 1012.20 1012.08 1011.93 1011.82 1011.80 1011.89 1012.11 1012.43 1012.80 1013.17 1013.49 1013.74 1013.93 1014.07 1014.21 1014.40 1014.68
1003.45 1004.46 1005.69 1006.94 1007.99 1008.67 1008.87 1008.55 1007.80 1006.75 1005.61 1004.59 1003.86 1003.52 1003.62 1004.09 1004.85 1005.74 1006.64 1007.43 1008.05 1008.51 1008.85 1009.11 1009.38 1009.70 1010.10 1010.54 1011.00 1011.41 1011.72 1011.90 1011.93 1011.86 1011.73 1011.61 1011.55 1011.60 1011.76 1012.02 1012.35 1012.69 1013.01 1013.27 1013.47 1013.62 1013.76 1013.94 1014.18
1003.78 1004.94 1006.30 1007.63 1008.72 1009.38 1009.49 1009.04 1008.10 1006.84 1005.49 1004.26 1003.34 1002.85 1002.84 1003.25 1003.98 1004.88 1005.80 1006.62 1007.28 1007.76 1008.11 1008.37 1008.64 1008.96 1009.36 1009.84 1010.34 1010.82 1011.22 1011.48 1011.59 1011.58 1011.48 1011.36 1011.28 1011.28 1011.40 1011.62 1011.92 1012.25 1012.57 1012.85 1013.08 1013.25 1013.40 1013.56 1013.77
1004.43 1005.68 1007.09 1008.43 1009.48 1010.05 1010.04 1009.43 1008.33 1006.89 1005.36 1003.96 1002.89 1002.28 1002.16 1002.50 1003.18 1004.06 1004.97 1005.80 1006.46 1006.95 1007.29 1007.55 1007.80 1008.12 1008.53 1009.03 1009.58 1010.12 1010.59 1010.94 1011.13 1011.18 1011.13 1011.03 1010.95 1010.93 1011.01 1011.21 1011.49 1011.83 1012.17 1012.49 1012.76 1012.97 1013.13 1013.28 1013.45
1005.15 1006.45 1007.83 1009.09 1010.03 1010.47 1010.32 1009.59 1008.36 1006.80 1005.16 1003.66 1002.50 1001.80 1001.61 1001.87 1002.50 1003.32 1004.20 1005.00 1005.65 1006.11 1006.44 1006.68 1006.92 1007.23 1007.64 1008.15 1008.73 1009.32 1009.86 1010.27 1010.54 1010.66 1010.66 1010.59 1010.52 1010.50 1010.58 1010.77 1011.06 1011.41 1011.80 1012.16 1012.48 1012.74 1012.93 1013.08 1013.21
1005.72 1006.97 1008.26 1009.38 1010.17 1010.46 1010.18 1009.35 1008.06 1006.47 1004.81 1003.31 1002.13 1001.40 1001.17 1001.38 1001.94 1002.71 1003.53 1004.27 1004.88 1005.32 1005.61 1005.83 1006.05 1006.34 1006.74 1007.25 1007.85 1008.47 1009.04 1009.52 1009.84 1010.02 1010.07 1010.05 1010.00 1010.00 1010.08 1010.28 1010.59 1010.97 1011.40 1011.82 1012.20 1012.52 1012.75 1012.91 1013.03
1005.96 1007.11 1008.23 1009.17 1009.77 1009.91 1009.54 1008.66 1007.38 1005.85 1004.27 1002.85 1001.75 1001.06 1000.83 1001.02 1001.53 1002.23 1002.98 1003.67 1004.22 1004.62 1004.89 1005.08 1005.28 1005.56 1005.94 1006.43 1007.02 1007.64 1008.23 1008.73 1009.10 1009.32 1009.41 1009.42 1009.41 1009.42 1009.52 1009.74 1010.06 1010.48 1010.95 1011.42 1011.86 1012.23 1012.51 1012.71 1012.84
Thickness
5834 5835 5833 5824 5805 5797 5801 5818 5832 5831 5832 5842 5844 5837 5823 5815 5804 5790 5818 5828 5827 5821 5816 5812 5810 5809 5808 5806 5805 5804 5803 5802 5801 5800 5798 5798 5797 5795 5795 5794 5794 5791 5788 5786 5785 5783 5781 5780 5778
5843 5843 5832 5816 5797 5788 5802 5825 5827 5832 5841 5847 5844 5838 5826 5818 5822 5818 5823 5828 5828 5823 5817 5813 5810 5808 5807 5805 5804 5803 5802 5801 5800 5798 5797 5796 5796 5795 5793 5792 5791 5789 5787 5786 5784 5782 5781 5779 5777
5846 5846 5825 5813 5805 5801 5807 5829 5835 5844 5851 5846 5837 5836 5825 5817 5823 5823 5828 5832 5830 5824 5818 5812 5810 5808 5806 5804 5803 5802 5801 5800 5799 5797 5796 5795 5795 5794 5793 5791 5790 5788 5787 5785 5783 5781 5780 5778 5776
5847 5840 5829 5817 5810 5824 5830 5838 5845 5843 5847 5848 5839 5825 5824 5832 5831 5832 5836 5835 5830 5824 5819 5813 5810 5808 5806 5804 5802 5801 5800 5799 5797 5796 5795 5794 5794 5793 5791 5790 5788 5787 5786 5784 5782 5781 5779 5777 5776
5849 5833 5817 5814 5820 5834 5846 5851 5852 5842 5840 5842 5835 5817 5813 5832 5839 5838 5837 5835 5830 5825 5820 5814 5810 5808 5805 5804 5802 5801 5799 5798 5797 5796 5795 5794 5792 5791 5790 5789 5788 5786 5785 5783 5782 5780 5779 5777 5776
5837 5834 5813 5814 5825 5841 5850 5857 5853 5844 5841 5841 5832 5816 5812 5833 5835 5836 5837 5834 5832 5826 5821 5815 5810 5808 5805 5804 5802 5801 5799 5798 5797 5795 5794 5793 5792 5791 5790 5788 5787 5785 5784 5783 5781 5780 5779 5778 5777
5830 5826 5822 5830 5830 5837 5850 5861 5852 5844 5839 5841 5840 5818 5815 5828 5836 5838 5837 5834 5831 5827 5822 5815 5811 5808 5806 5804 5802 5800 5799 5798 5797 5795 5794 5793 5791 5790 5789 5787 5786 5785 5784 5783 5781 5781 5780 5779 5777
5851 5836 5830 5837 5833 5835 5855 5860 5858 5850 5843 5856 5851 5824 5815 5828 5839 5839 5836 5832 5829 5826 5822 5818 5815 5811 5808 5805 5802 5801 5799 5798 5796 5795 5794 5793 5791 5790 5789 5787 5786 5785 5784 5783 5782 5781 5780 5779 5778
5861 5833 5828 5839 5839 5842 5859 5854 5857 5864 5854 5852 5852 5842 5837 5840 5840 5835 5829 5826 5824 5823 5822 5821 5817 5814 5812 5808 5804 5802 5800 5798 5797 5795 5794 5793 5792 5791 5789 5788 5786 5786 5785 5784 5783 5782 5781 5780 5779
5853 5832 5842 5860 5862 5857 5860 5856 5857 5854 5844 5841 5841 5844 5845 5841 5836 5829 5824 5819 5818 5818 5821 5822 5819 5816 5814 5812 5807 5804 5802 5799 5798 5797 5795 5794 5793 5792 5791 5789 5788 5788 5786 5784 5784 5783 5782 5781 5780
5859 5849 5862 5870 5874 5871 5862 5860 5864 5851 5836 5840 5836 5838 5841 5839 5835 5830 5825 5823 5819 5819 5820 5821 5820 5818 5816 5812 5809 5807 5805 5802 5800 5798 5796 5795 5794 5792 5791 5789 5788 5788 5786 5785 5784 5783 5783 5782 5782
5865 5868 5874 5874 5879 5873 5865 5863 5858 5853 5849 5856 5853 5848 5843 5838 5834 5831 5826 5824 5824 5821 5820 5822 5821 5818 5815 5813 5811 5809 5806 5804 5802 5799 5797 5796 5794 5792 5791 5790 5789 5789 5788 5787 5786 5785 5783 5783 5783
5865 5868 5877 5882 5880 5876 5869 5861 5858 5855 5862 5863 5858 5851 5844 5839 5836 5836 5833 5829 5827 5823 5821 5822 5821 5817 5814 5812 5810 5809 5807 5805 5803 5799 5797 5796 5794 5792 5791 5790 5790 5790 5789 5788 5787 5785 5784 5783 5782
5870 5874 5877 5880 5877 5876 5865 5861 5858 5856 5865 5859 5853 5847 5846 5842 5840 5837 5833 5829 5826 5824 5823 5822 5819 5816 5814 5811 5809 5809 5808 5805 5803 5800 5798 5796 5795 5792 5791 5790 5789 5789 5789 5788 5787 5786 5785 5783 5782
5872 5862 5864 5871 5874 5875 5866 5846 5851 5861 5864 5855 5850 5848 5845 5844 5842 5839 5836 5833 5831 5827 5824 5822 5819 5816 5813 5812 5810 5810 5808 5806 5803 5800 5798 5796 5795 5792 5790 5789 5788 5788 5789 5788 5787 5786 5785 5783 5781
5858 5845 5839 5859 5870 5874 5859 5827 5852 5865 5861 5852 5850 5848 5844 5843 5844 5843 5841 5838 5834 5829 5825 5822 5822 5817 5814 5812 5811 5809 5808 5806 5803 5801 5798 5796 5794 5793 5791 5789 5788 5788 5788 5787 5786 5784 5782 5780 5779
5841 5830 5835 5852 5871 5871 5857 5839 5857 5868 5861 5852 5851 5848 5844 5842 5844 5845 5844 5840 5836 5831 5826 5822 5820 5817 5814 5812 5811 5809 5807 5805 5803 5801 5798 5796 5794 5793 5791 5789 5788 5788 5787 5786 5785 5782 5780 5777 5776
5827 5834 5834 5840 5863 5864 5852 5846 5858 5867 5864 5856 5854 5850 5846 5843 5844 5846 5845 5842 5837 5832 5827 5823 5820 5817 5815 5812 5810 5808 5806 5805 5803 5800 5798 5796 5794 5792 5791 5789 5788 5787 5785 5784 5783 5780 5779 5777 5775
5848 5841 5835 5848 5870 5862 5852 5845 5856 5865 5865 5858 5854 5851 5848 5847 5850 5849 5846 5843 5836 5831 5826 5822 5819 5816 5814 5810 5807 5804 5802 5802 5801 5799 5797 5796 5794 5792 5790 5789 5787 5785 5783 5781 5781 5778 5776 5774 5775
5849 5842 5842 5852 5868 5861 5850 5848 5859 5869 5865 5863 5857 5853 5851 5849 5847 5846 5844 5842 5836 5830 5826 5823 5819 5817 5814 5811 5809 5807 5805 5803 5801 5800 5797 5796 5794 5792 5791 5787 5785 5784 5781 5779 5778 5776 5772 5771 5772
5849 5846 5845 5843 5857 5864 5851 5838 5849 5863 5869 5868 5865 5860 5857 5852 5846 5844 5843 5841 5837 5831 5828 5825 5821 5818 5815 5813 5811 5808 5805 5802 5799 5797 5795 5795 5794 5791 5789 5787 5785 5783 5780 5777 5776 5773 5769 5766 5767
5843 5864 5858 5850 5839 5836 5841 5815 5838 5852 5854 5858 5861 5861 5857 5856 5852 5847 5843 5841 5838 5835 5832 5827 5822 5819 5815 5813 5809 5805 5800 5796 5796 5796 5795 5794 5792 5790 5788 5786 5783 5781 5779 5776 5774 5773 5770 5766 5762
5855 5869 5860 5853 5842 5832 5837 5818 5827 5847 5837 5848 5859 5861 5860 5859 5855 5850 5846 5842 5841 5838 5833 5828 5823 5818 5816 5813 5809 5804 5801 5799 5798 5796 5794 5792 5790 5789 5786 5784 5781 5778 5776 5774 5772 5771 5768 5766 5761
5868 5861 5853 5849 5839 5812 5827 5820 5818 5836 5841 5850 5859 5863 5862 5860 5857 5851 5849 5844 5841 5838 5834 5828 5821 5816 5814 5811 5808 5803 5799 5797 5794 5792 5790 5789 5788 5786 5784 5782 5779 5777 5774 5772 5770 5768 5765 5763 5761
5859 5837 5811 5806 5805 5809 5838 5829 5828 5849 5861 5860 5860 5860 5864 5862 5857 5851 5846 5841 5838 5835 5831 5826 5819 5814 5812 5809 5806 5803 5800 5797 5793 5791 5789 5787 5785 5783 5782 5781 5777 5775 5773 5771 5768 5765 5763 5760 5758
5850 5841 5812 5797 5800 5813 5830 5824 5840 5865 5868 5869 5867 5865 5864 5862 5858 5852 5847 5842 5837 5834 5830 5824 5817 5813 5810 5807 5804 5802 5799 5797 5794 5791 5789 5786 5784 5783 5782 5778 5775 5773 5771 5769 5766 5763 5761 5759 5757
5844 5842 5852 5829 5817 5807 5818 5831 5847 5863 5860 5861 5861 5858 5855 5857 5854 5850 5847 5842 5837 5833 5828 5823 5816 5811 5809 5806 5803 5800 5798 5795 5792 5790 5788 5785 5783 5781 5778 5775 5772 5770 5767 5765 5763 5760 5757 5756 5754
5856 5851 5839 5819 5795 5787 5801 5811 5820 5840 5846 5851 5849 5850 5852 5854 5852 5848 5845 5841 5837 5834 5828 5824 5817 5811 5808 5805 5801 5798 5796 5794 5790 5788 5785 5782 5780 5778 5774 5771 5768 5765 5763 5761 5759 5756 5754 5752 5750
5842 5839 5833 5821 5815 5794 5783 5803 5844 5843 5847 5845 5844 5844 5847 5848 5847 5844 5840 5838 5834 5830 5826 5820 5814 5810 5806 5802 5799 5796 5793 5791 5788 5785 5782 5780 5777 5774 5770 5767 5764 5761 5758 5756 5753 5752 5750 5748 5746
5847 5840 5833 5810 5804 5810 5802 5806 5849 5848 5852 5849 5843 5840 5844 5845 5844 5840 5837 5833 5828 5824 5821 5817 5812 5808 5804 5800 5797 5793 5790 5786 5783 5781 5778 5776 5773 5770 5766 5764 5760 5757 5754 5752 5749 5747 5746 5743 5741